Simultaneous Nadir Overpasses (SNOs) Predictions

Prediction of SNOs between GOES-15 and LANDSAT-8 Satellite Orbit:

Table of predicted SNOs for the next 14.0 days since TLE Epoch: 1/6/2024
Index Date Time (GOES-15) GOES-15 Lat,Lon LANDSAT-8 Lat,Lon Distance(km) Time Diff (sec)
1 01/07/2024 05:59:16 -0.04, 61.43 -0.48, 63.56 241.36 80
2 01/07/2024 18:20:40 0.03, 61.45 -0.66, 58.37 350.87 80
3 01/09/2024 18:08:30 0.03, 61.49 -0.02, 61.32 20.01 80
4 01/11/2024 17:53:40 0.03, 61.54 0.63, 64.27 310.33 80
5 01/12/2024 06:14:55 -0.02, 61.55 0.52, 59.12 277.24 80
6 01/14/2024 06:05:25 -0.02, 61.60 -0.14, 62.06 53.25 80
7 01/16/2024 05:53:14 -0.02, 61.65 -0.75, 65.02 383.72 80
8 01/16/2024 18:14:38 0.01, 61.65 -0.37, 59.83 206.98 80
9 01/18/2024 17:59:47 0.01, 61.71 0.25, 62.79 122.82 80
10 01/19/2024 06:21:01 -0.01, 61.74 0.90, 57.64 467.15 80
